TimeCST,TemperatureF,Dew PointF,Humidity,Sea Level PressureIn,VisibilityMPH,Wind Direction,Wind SpeedMPH,Gust SpeedMPH,PrecipitationIn,Events,Conditions,WindDirDegrees,DateUTC
12:01 AM,10.4,5.0,79,29.97,10.0,NW,12.7,-,N/A,,Overcast,310,2014-01-22 06:01:00
12:21 AM,10.4,3.2,73,29.97,10.0,NW,16.1,-,N/A,,Overcast,310,2014-01-22 06:21:00
1:01 AM,10.4,3.2,73,29.98,10.0,NW,17.3,-,N/A,,Overcast,320,2014-01-22 07:01:00
1:21 AM,8.6,3.2,79,29.98,7.0,NW,20.7,26.5,N/A,,Overcast,320,2014-01-22 07:21:00
1:41 AM,6.8,1.4,79,29.99,10.0,NW,17.3,-,N/A,,Mostly Cloudy,320,2014-01-22 07:41:00
2:01 AM,6.8,1.4,79,29.99,10.0,NW,18.4,-,N/A,,Overcast,320,2014-01-22 08:01:00
2:21 AM,6.8,1.4,79,30.00,7.0,NNW,20.7,-,N/A,,Overcast,330,2014-01-22 08:21:00
2:41 AM,6.8,1.4,79,30.00,7.0,NNW,18.4,25.3,N/A,,Overcast,340,2014-01-22 08:41:00
3:01 AM,6.8,-0.4,72,30.00,10.0,NNW,17.3,-,N/A,,Mostly Cloudy,330,2014-01-22 09:01:00
3:21 AM,5.0,-0.4,78,30.00,10.0,NW,12.7,-,N/A,,Scattered Clouds,320,2014-01-22 09:21:00
3:41 AM,6.8,-0.4,72,30.00,10.0,NW,13.8,-,N/A,,Scattered Clouds,310,2014-01-22 09:41:00
4:01 AM,6.8,1.4,79,30.00,10.0,NW,12.7,-,N/A,,Overcast,310,2014-01-22 10:01:00
4:21 AM,6.8,1.4,79,29.99,10.0,WNW,8.1,-,N/A,,Overcast,300,2014-01-22 10:21:00
4:41 AM,6.8,1.4,79,29.99,10.0,NW,10.4,-,N/A,,Overcast,310,2014-01-22 10:41:00
5:01 AM,6.8,1.4,79,29.99,10.0,NW,11.5,-,N/A,,Overcast,310,2014-01-22 11:01:00
5:21 AM,8.6,1.4,73,30.00,7.0,NW,10.4,-,N/A,,Overcast,310,2014-01-22 11:21:00
5:41 AM,8.6,3.2,79,30.00,5.0,NW,13.8,-,N/A,,Overcast,310,2014-01-22 11:41:00
6:01 AM,8.6,3.2,79,30.00,3.0,NW,17.3,-,N/A,,Overcast,310,2014-01-22 12:01:00
6:41 AM,8.6,3.2,79,30.02,2.5,NW,18.4,-,N/A,,Mostly Cloudy,320,2014-01-22 12:41:00
7:01 AM,8.6,3.2,79,30.03,2.5,NW,21.9,25.3,N/A,,Mostly Cloudy,320,2014-01-22 13:01:00
7:21 AM,-9999,-9999,N/A,30.03,2.5,NW,21.9,-,N/A,,Overcast,320,2014-01-22 13:21:00
7:41 AM,8.6,1.4,73,30.04,3.0,NW,20.7,28.8,N/A,,Overcast,310,2014-01-22 13:41:00
8:01 AM,6.8,-0.4,72,30.05,1.0,NNW,25.3,32.2,N/A,,Overcast,330,2014-01-22 14:01:00
8:21 AM,5.0,-0.4,78,30.06,2.0,NW,21.9,27.6,N/A,,Overcast,320,2014-01-22 14:21:00
8:41 AM,3.2,-2.2,78,30.07,1.2,NW,21.9,-,N/A,,Overcast,320,2014-01-22 14:41:00
9:01 AM,3.2,-2.2,78,30.08,4.0,NW,21.9,-,N/A,,Mostly Cloudy,320,2014-01-22 15:01:00
9:21 AM,1.4,-5.8,72,30.10,1.2,NW,25.3,28.8,N/A,,Mostly Cloudy,320,2014-01-22 15:21:00
9:41 AM,1.4,-5.8,72,30.12,1.2,NW,23.0,29.9,N/A,,Mostly Cloudy,310,2014-01-22 15:41:00
10:01 AM,-0.4,-7.6,72,30.13,1.0,NW,24.2,32.2,N/A,,Mostly Cloudy,320,2014-01-22 16:01:00
10:21 AM,-0.4,-7.6,72,30.14,0.8,NW,23.0,29.9,N/A,,Overcast,320,2014-01-22 16:21:00
10:41 AM,-0.4,-7.6,72,30.16,1.0,NW,25.3,29.9,N/A,,Overcast,320,2014-01-22 16:41:00
11:21 AM,-0.4,-9.4,66,30.18,1.0,NW,29.9,33.4,N/A,,Overcast,320,2014-01-22 17:21:00
11:41 AM,-0.4,-9.4,66,30.19,1.2,NW,25.3,31.1,N/A,,Overcast,320,2014-01-22 17:41:00
12:01 PM,-0.4,-9.4,66,30.19,1.8,NW,23.0,28.8,N/A,,Overcast,320,2014-01-22 18:01:00
12:21 PM,-0.4,-9.4,66,30.19,1.2,NW,25.3,28.8,N/A,,Overcast,320,2014-01-22 18:21:00
1:01 PM,-0.4,-9.4,66,30.19,1.2,NW,28.8,-,N/A,,Mostly Cloudy,320,2014-01-22 19:01:00
1:21 PM,-2.2,-11.2,66,30.21,1.0,NNW,26.5,35.7,N/A,,Mostly Cloudy,340,2014-01-22 19:21:00
1:41 PM,-0.4,-9.4,66,30.22,1.5,NNW,24.2,32.2,N/A,,Mostly Cloudy,330,2014-01-22 19:41:00
2:01 PM,-0.4,-9.4,66,30.23,1.2,NW,26.5,32.2,N/A,,Mostly Cloudy,320,2014-01-22 20:01:00
2:21 PM,-2.2,-11.2,66,30.25,1.5,NW,23.0,28.8,N/A,,Mostly Cloudy,310,2014-01-22 20:21:00
2:41 PM,-4.0,-11.2,71,30.26,1.2,NW,23.0,31.1,N/A,,Overcast,310,2014-01-22 20:41:00
3:01 PM,-4.0,-11.2,71,30.27,1.0,NW,26.5,31.1,N/A,,Overcast,320,2014-01-22 21:01:00
3:21 PM,-5.8,-11.2,77,30.28,1.0,NW,25.3,33.4,N/A,,Overcast,310,2014-01-22 21:21:00
3:41 PM,-5.8,-13.0,71,30.30,1.2,NW,23.0,27.6,N/A,,Mostly Cloudy,310,2014-01-22 21:41:00
4:01 PM,-5.8,-14.8,65,30.32,1.8,NW,23.0,28.8,N/A,,Mostly Cloudy,310,2014-01-22 22:01:00
4:21 PM,-5.8,-14.8,65,30.32,1.2,NW,24.2,-,N/A,,Mostly Cloudy,320,2014-01-22 22:21:00
5:01 PM,-7.6,-14.8,71,30.36,1.0,NW,24.2,31.1,N/A,,Clear,320,2014-01-22 23:01:00
5:21 PM,-7.6,-16.6,65,30.37,2.0,NW,24.2,-,N/A,,Clear,320,2014-01-22 23:21:00
5:41 PM,-9.4,-16.6,71,30.38,3.0,NW,21.9,25.3,N/A,,Clear,320,2014-01-22 23:41:00
6:01 PM,-9.4,-16.6,71,30.39,3.0,NW,24.2,-,N/A,,Clear,320,2014-01-23 00:01:00
6:21 PM,-9.4,-16.6,71,30.40,2.5,NW,21.9,29.9,N/A,,Clear,310,2014-01-23 00:21:00
6:41 PM,-9.4,-16.6,71,30.42,4.0,NW,20.7,25.3,N/A,,Clear,310,2014-01-23 00:41:00
7:21 PM,-9.4,-16.6,71,30.44,10.0,NW,17.3,-,N/A,,Clear,310,2014-01-23 01:21:00
7:41 PM,-9.4,-16.6,71,30.45,5.0,NW,20.7,26.5,N/A,,Clear,310,2014-01-23 01:41:00
8:01 PM,-9.4,-18.4,65,30.45,5.0,NW,20.7,26.5,N/A,,Clear,310,2014-01-23 02:01:00
8:21 PM,-9.4,-18.4,65,30.46,5.0,NW,21.9,27.6,N/A,,Clear,320,2014-01-23 02:21:00
8:41 PM,-9.4,-18.4,65,30.47,5.0,NW,21.9,-,N/A,,Clear,320,2014-01-23 02:41:00
9:01 PM,-11.2,-18.4,70,30.48,10.0,NW,18.4,-,N/A,,Clear,320,2014-01-23 03:01:00
9:21 PM,-11.2,-18.4,70,30.49,10.0,NNW,17.3,23.0,N/A,,Clear,330,2014-01-23 03:21:00
9:41 PM,-11.2,-18.4,70,30.50,10.0,NW,18.4,-,N/A,,Clear,320,2014-01-23 03:41:00
10:01 PM,-11.2,-18.4,70,30.51,10.0,NW,16.1,-,N/A,,Clear,320,2014-01-23 04:01:00
10:41 PM,-11.2,-18.4,70,30.52,10.0,NW,16.1,-,N/A,,Clear,320,2014-01-23 04:41:00
11:01 PM,-11.2,-18.4,70,30.53,10.0,NW,18.4,23.0,N/A,,Scattered Clouds,310,2014-01-23 05:01:00
11:21 PM,-11.2,-18.4,70,30.53,7.0,NW,17.3,-,N/A,,Overcast,310,2014-01-23 05:21:00